Theta_e
312 312 312 311 310 310 309 309 308 306 305 304 304 304 304 304 305 306 305 301 300 301 301 301 301 302 302 302 301 302 302 303 301 306 308 310 314 315 318 317 317 317 318 319 320 325 331 317 318 324 318 317 319 324
312 312 312 312 311 310 310 309 308 307 306 306 306 304 304 304 304 305 305 303 301 300 300 300 301 301 301 303 303 302 302 301 302 302 304 306 312 313 313 322 310 316 311 314 321 322 318 317 314 312 312 315 317 318
312 312 313 313 311 311 310 309 309 308 307 307 306 305 305 305 305 304 305 304 300 300 300 301 302 302 302 303 302 303 302 303 303 304 303 303 308 308 314 313 309 309 309 314 319 318 310 314 311 311 312 314 315 320
312 313 315 312 310 310 310 310 309 308 308 307 306 305 305 305 305 304 306 305 303 300 301 301 302 302 302 302 303 304 303 302 303 303 302 301 305 305 310 308 308 308 309 312 312 309 311 314 311 310 310 312 316 322
312 313 315 309 309 309 309 308 308 308 307 307 306 305 305 305 305 303 304 306 305 302 301 302 302 304 304 304 303 302 303 303 302 302 300 301 302 303 303 306 308 308 310 311 313 308 309 309 307 309 309 308 313 322
312 314 314 309 310 310 310 310 310 309 308 307 307 306 305 305 305 306 305 305 305 304 300 304 304 305 304 305 304 303 303 302 303 303 301 302 304 304 302 304 306 308 307 307 306 306 306 306 307 308 307 309 312 319
312 314 315 310 311 311 311 312 312 312 311 309 308 305 306 306 306 306 305 304 304 302 302 304 303 304 307 308 304 303 304 303 304 303 301 302 304 304 299 301 304 306 306 306 306 305 305 305 306 307 308 309 311 317
313 314 315 312 313 313 313 312 311 311 312 310 308 307 307 307 307 306 306 305 304 303 302 304 303 304 308 307 308 305 304 303 304 304 302 301 302 301 301 302 304 304 304 304 304 304 305 306 306 307 308 310 310 314
314 315 316 313 312 314 315 315 314 312 312 310 308 308 307 307 306 306 305 305 303 302 302 302 304 305 304 306 307 309 308 303 304 300 300 302 300 302 302 304 304 304 304 304 305 305 306 306 307 306 306 306 308 311
315 315 316 314 314 316 316 315 315 314 313 310 309 308 308 307 306 305 304 302 301 300 300 300 301 305 303 303 307 307 308 309 308 306 304 300 304 305 304 304 304 305 305 306 305 305 306 306 306 305 306 306 306 310
316 316 316 315 314 315 314 314 315 316 312 310 310 309 308 306 306 304 302 302 300 300 300 300 300 303 303 304 305 306 308 309 311 310 309 309 307 304 308 307 306 305 305 305 306 306 306 306 306 306 306 306 306 309
317 317 317 316 314 314 314 315 317 317 314 312 312 310 308 307 306 306 305 301 301 305 301 300 302 303 303 304 305 307 309 308 312 307 310 312 311 311 311 311 311 311 310 308 306 306 306 306 306 306 306 306 306 308
317 317 317 316 314 314 314 316 318 317 315 313 314 313 312 313 313 314 315 311 308 304 303 303 306 305 305 305 306 308 309 311 306 310 312 309 309 310 311 313 314 313 311 310 311 310 307 307 307 306 307 307 306 306
317 317 317 315 314 314 314 317 319 318 317 317 317 312 317 318 317 317 318 317 317 312 307 305 307 307 307 306 305 307 307 303 309 311 311 310 312 314 316 316 313 314 313 310 311 311 311 311 308 307 308 308 306 306
317 317 317 316 314 314 314 318 318 318 318 318 318 314 315 317 316 315 315 316 314 311 308 307 308 307 307 306 302 305 308 311 309 310 310 311 316 315 316 317 316 312 312 311 311 312 312 313 313 313 315 316 309 309
316 317 317 316 315 316 317 319 319 318 318 318 317 315 317 314 314 313 313 314 313 311 309 310 311 312 313 312 314 313 311 313 316 315 312 309 310 313 315 317 319 319 316 313 312 312 312 312 314 317 316 312 309 311
316 317 316 316 315 317 319 320 319 319 318 318 317 317 317 315 314 313 312 312 314 313 311 314 317 319 316 317 318 317 317 317 316 313 308 306 305 306 311 315 315 315 317 318 318 315 316 315 311 309 308 310 310 317
317 317 316 316 316 317 319 320 320 319 319 319 317 316 314 313 313 312 311 310 312 312 316 314 314 314 315 315 313 313 314 312 309 307 307 309 310 308 309 306 310 314 313 315 317 319 319 317 321 321 323 324 325 325
317 318 317 317 318 318 320 321 320 319 318 318 317 314 313 312 311 312 311 309 309 310 311 310 309 310 310 308 308 309 310 311 307 304 305 307 308 308 310 311 309 305 311 313 316 317 316 317 318 320 320 321 322 323
317 318 319 319 320 320 321 320 321 319 318 318 317 314 313 312 310 310 310 309 308 309 309 308 309 307 306 306 306 307 305 305 305 303 301 302 302 301 301 306 309 310 307 308 314 316 317 318 317 317 319 319 320 321
319 323 323 322 322 321 320 318 317 316 317 316 313 312 313 312 310 309 309 308 308 309 308 307 305 304 305 306 307 305 304 303 302 300 300 300 300 300 300 300 300 301 306 307 308 309 315 316 317 318 318 318 317 317
319 320 322 322 321 320 319 317 316 316 317 314 311 311 311 313 311 310 309 309 309 308 308 306 304 305 304 304 305 305 302 302 302 302 301 300 300 300 300 299 299 299 300 302 307 309 311 314 317 317 316 318 318 318
321 320 322 323 322 319 319 317 317 315 315 316 312 313 314 313 313 309 309 308 309 309 307 304 304 303 303 303 303 304 303 302 302 301 300 300 300 299 300 299 299 299 299 300 303 305 309 311 314 314 316 317 317 317
321 321 321 317 317 317 319 319 316 315 315 314 317 316 314 313 312 310 308 309 309 309 307 303 302 302 302 302 301 301 300 300 300 300 300 300 300 299 299 299 299 299 299 299 301 305 308 310 311 313 312 314 314 313
320 318 316 315 317 316 315 312 312 312 314 313 316 315 312 312 310 309 309 309 309 309 307 303 301 301 301 300 299 299 298 298 297 297 297 297 297 298 298 298 298 298 298 298 299 301 306 307 307 309 309 309 309 310
312 317 317 316 316 315 315 313 311 312 312 312 311 309 308 306 307 306 306 308 309 308 305 303 302 301 301 300 299 299 298 297 296 295 295 295 295 295 295 295 296 296 297 298 298 299 299 302 303 303 303 302 302 302
313 318 318 317 317 318 316 314 312 313 313 312 307 307 306 307 307 306 308 310 310 309 306 302 302 301 300 299 299 298 297 297 295 294 293 293 293 293 294 295 296 296 297 298 298 298 299 299 299 300 300 300 300 300
316 318 317 318 318 317 315 314 312 312 311 309 307 307 308 307 305 308 310 309 307 306 304 301 301 300 299 299 298 297 297 296 296 295 294 293 293 294 294 295 296 296 297 297 298 298 298 298 298 297 297 297 297 297
319 319 319 317 316 316 316 314 313 313 312 309 306 306 307 308 309 310 310 310 306 304 303 302 301 300 299 299 298 297 296 296 296 294 293 292 293 294 294 295 295 295 295 296 296 296 296 296 296 296 295 295 294 294
318 318 319 319 315 315 316 315 313 312 310 309 308 308 308 309 310 309 307 306 304 304 302 301 300 300 300 299 298 297 296 295 295 294 293 293 292 293 294 294 294 294 294 294 294 294 294 294 294 294 294 294 294 294
319 317 319 319 317 317 314 311 311 309 307 307 307 308 309 310 309 307 306 304 305 305 302 301 300 300 299 298 298 297 296 295 295 294 293 293 293 293 292 293 294 294 294 294 294 294 294 294 294 294 294 294 294 294
320 317 318 317 316 311 309 309 310 310 311 311 310 310 309 310 308 305 303 303 306 304 302 302 300 299 298 298 298 297 295 295 294 293 293 293 293 293 293 292 293 293 293 293 293 293 293 293 293 293 293 293 292 292
319 318 319 317 311 311 313 313 314 313 313 313 313 312 311 310 310 305 305 306 303 303 302 301 300 299 298 298 297 296 295 294 293 293 293 293 293 293 293 293 292 292 292 293 292 293 293 292 292 292 292 292 292 292
Wind_Speed
38 39 38 35 31 29 27 26 25 23 21 20 19 18 16 15 15 13 11 9 12 7 22 27 25 16 12 9 2 10 10 6 6 6 3 3 3 3 2 3 3 2 2 1 0 1 2 26 5 6 7 13 17 22
40 40 38 34 31 28 26 24 23 21 20 19 18 17 14 13 13 12 13 9 10 16 16 22 23 27 26 18 9 5 5 4 4 3 3 2 2 3 4 2 5 3 2 2 1 4 0 7 12 12 13 12 18 24
40 40 37 33 30 27 25 23 22 20 19 18 16 16 14 12 11 10 14 12 11 12 23 15 8 4 5 12 18 7 5 2 2 6 1 1 2 2 3 3 4 6 2 2 2 1 9 4 18 27 26 24 27 28
39 38 34 32 29 26 24 22 21 19 18 17 15 14 12 10 9 10 13 13 11 4 4 6 4 5 12 15 11 17 11 13 12 13 2 1 1 3 1 3 2 3 6 2 2 5 10 8 25 32 33 35 39 37
38 36 33 30 27 25 23 22 21 20 19 17 15 13 10 9 7 9 10 13 12 5 4 11 22 2 5 4 16 19 21 19 9 3 1 2 3 2 3 1 2 3 2 2 2 2 3 13 30 28 32 37 38 38
36 34 30 27 25 24 23 22 22 21 20 19 16 12 8 8 4 4 3 7 11 12 2 3 8 5 6 6 12 16 18 17 7 4 4 4 3 2 2 2 7 6 5 1 2 15 19 29 27 18 34 33 33 32
34 32 28 25 24 23 24 23 24 24 23 19 14 7 3 2 4 3 2 1 1 9 3 4 6 5 10 5 3 15 15 11 10 6 5 4 2 2 1 4 11 14 17 21 25 24 24 21 26 32 29 28 28 27
33 30 26 23 23 24 24 25 25 24 22 15 10 6 6 4 2 3 8 6 4 5 2 2 3 6 7 7 3 2 9 12 9 7 4 4 2 3 4 18 34 33 31 32 34 34 32 30 25 24 23 25 28 28
32 29 26 22 22 23 24 26 27 23 16 12 7 5 4 4 3 3 3 7 9 3 1 1 2 3 10 5 4 3 1 1 4 3 5 6 4 6 6 17 28 36 24 27 23 24 23 22 23 25 25 25 26 29
30 28 25 20 19 21 24 27 27 23 10 6 6 4 5 5 4 2 1 2 1 1 2 2 3 2 7 7 2 3 4 2 2 2 2 3 7 32 35 35 38 36 31 27 29 27 23 23 23 21 20 21 22 25
29 26 25 19 17 20 24 26 25 22 9 5 4 3 4 2 2 2 1 1 0 1 3 3 3 3 2 1 2 4 2 1 2 1 1 2 3 4 13 21 34 43 44 45 42 42 38 32 25 23 26 25 23 22
29 25 22 18 15 18 23 25 23 19 9 5 4 3 3 3 2 1 0 1 2 1 3 2 3 3 4 3 3 2 2 1 3 6 2 3 4 18 26 31 34 30 23 31 39 43 42 42 39 33 33 32 28 24
28 23 18 15 13 16 21 24 21 18 10 6 5 3 4 4 5 5 6 4 3 4 5 3 1 3 2 2 3 1 3 3 7 1 3 4 17 32 37 41 37 35 35 36 32 28 35 38 35 34 32 30 29 27
25 20 16 11 12 15 17 19 20 18 7 5 5 6 4 5 4 2 3 4 8 2 3 4 1 2 1 0 2 2 2 2 3 2 3 5 30 31 28 30 25 16 22 30 34 30 26 28 32 33 31 30 30 29
22 17 9 10 12 13 12 13 17 17 6 5 5 5 3 7 9 12 13 7 6 1 5 1 1 1 1 1 0 2 3 4 2 3 3 24 30 39 34 28 24 11 9 21 26 26 24 23 25 29 32 31 29 26
22 14 10 11 11 11 8 10 10 9 4 4 7 4 11 6 14 21 21 17 15 3 3 1 1 1 3 2 4 3 2 6 10 7 27 35 36 41 43 42 32 21 14 7 21 27 28 28 30 29 22 24 26 27
20 9 12 8 9 6 7 8 5 4 3 3 2 5 6 5 7 15 22 19 15 9 2 1 5 5 2 5 6 5 6 7 17 22 28 36 38 40 38 37 40 40 31 20 10 7 18 15 12 16 17 19 23 26
18 14 8 8 9 7 5 4 3 2 2 2 3 6 9 11 17 17 26 29 9 7 6 3 5 6 5 6 5 5 10 16 17 22 28 33 38 41 45 44 36 29 36 37 26 14 2 6 10 11 14 11 12 14
15 10 6 10 9 3 1 1 1 1 2 4 6 11 9 17 21 18 18 23 25 20 6 6 6 4 3 7 14 19 15 12 14 21 24 26 30 31 31 36 44 42 33 29 32 28 24 20 14 18 22 21 23 20
10 10 9 6 5 1 1 2 2 3 4 5 12 13 15 16 23 22 21 21 18 10 13 5 3 5 6 12 11 14 16 15 16 21 25 29 31 34 36 32 30 32 41 42 33 35 30 24 21 21 22 16 11 11
8 8 6 4 3 4 3 4 4 4 4 8 20 9 10 20 27 26 22 15 13 7 7 10 15 20 20 16 13 12 14 15 18 18 19 23 27 31 34 35 36 34 30 31 38 38 28 29 22 15 15 19 20 17
8 6 4 5 3 2 3 6 3 3 4 9 7 6 1 1 10 11 12 12 7 9 9 11 14 14 11 14 16 11 10 11 13 16 19 22 26 27 29 32 35 35 37 35 27 27 34 25 20 20 18 17 14 13
6 4 3 3 2 4 2 3 2 2 3 6 10 4 2 2 3 5 4 7 5 15 16 10 10 11 13 13 14 13 12 13 14 14 16 19 22 24 24 26 28 30 32 30 31 26 22 24 23 21 17 21 24 23
3 3 3 3 5 3 3 3 3 2 4 3 2 3 2 3 4 5 2 3 2 13 11 8 8 10 12 12 14 14 14 13 13 14 14 17 18 19 20 21 21 22 24 26 26 27 22 19 13 20 24 26 27 27
3 4 3 4 5 5 4 3 2 2 2 3 2 3 3 2 2 1 1 3 7 11 8 5 6 9 11 11 12 13 16 18 18 17 16 16 15 15 13 14 16 19 21 21 23 24 22 18 19 18 19 23 23 24
4 4 3 2 2 2 2 3 2 1 2 2 2 3 2 3 2 1 2 3 8 9 7 6 3 4 8 8 10 13 16 17 16 17 15 15 15 16 17 19 19 18 16 17 16 15 18 20 19 22 25 24 24 24
2 1 2 2 1 2 1 1 1 4 2 2 2 2 2 2 1 2 2 5 8 9 8 4 3 3 5 6 8 12 16 20 19 17 18 16 17 15 14 16 16 16 16 12 10 10 12 14 15 16 16 17 18 18
1 2 1 2 2 1 0 1 1 1 2 4 4 2 3 4 4 4 4 7 9 9 4 3 4 3 5 8 9 10 12 16 19 21 19 20 21 21 18 14 13 12 13 14 12 11 12 13 13 14 15 15 15 15
2 3 2 2 1 1 1 1 2 2 5 5 5 3 5 4 10 5 3 6 6 5 7 6 6 5 9 12 13 12 13 17 23 25 23 22 23 23 19 17 16 17 16 14 13 13 13 13 13 13 13 12 12 14
3 8 4 2 2 2 1 1 3 5 5 4 5 9 10 10 5 1 4 5 5 6 6 4 3 3 7 11 11 10 12 14 20 21 19 18 17 16 16 17 15 15 12 10 9 8 7 7 8 10 11 12 14 14
2 7 3 3 2 2 4 6 8 9 8 6 9 13 9 6 5 4 3 4 7 9 5 8 6 4 6 9 10 11 9 9 17 17 15 15 13 14 15 16 14 14 13 13 13 13 13 14 13 12 11 12 12 12
7 8 6 3 2 11 12 9 6 4 6 5 4 6 7 5 4 5 4 5 7 5 3 7 5 4 6 9 11 10 5 9 12 13 12 13 14 13 12 12 10 11 12 12 12 12 12 11 11 11 12 12 12 13
5 6 5 6 7 8 7 6 4 2 3 3 3 5 4 4 1 4 3 5 3 4 3 3 4 5 8 9 9 5 6 9 10 12 10 11 12 12 11 8 9 10 10 12 11 9 9 10 12 13 13 12 13 13
Wind_Direction
339 338 336 332 328 327 321 318 316 311 306 305 305 299 297 294 301 279 272 256 241 252 275 272 275 277 275 272 250 319 343 358 338 36 29 330 331 1 344 41 358 80 73 67 50 157 112 345 11 85 299 320 325 326
340 339 338 335 332 329 324 321 319 315 309 308 307 304 298 289 288 285 254 250 242 234 266 281 271 272 275 272 249 322 278 273 287 17 3 320 339 339 328 87 346 44 124 184 146 142 138 346 92 18 360 335 332 332
342 342 341 341 338 333 331 329 325 320 314 311 310 310 307 296 285 273 258 241 232 272 293 281 300 358 230 244 250 227 251 257 336 9 282 278 333 339 4 19 317 350 32 67 67 327 335 170 14 3 7 353 351 358
344 345 344 346 342 341 342 338 332 326 321 318 315 311 315 301 282 268 257 256 242 254 282 296 7 269 284 281 240 225 240 286 297 317 353 353 292 19 306 314 313 246 335 349 348 339 7 191 355 352 354 0 2 7
345 345 345 348 345 349 352 349 343 339 333 327 324 318 310 301 274 277 255 260 271 202 278 288 306 18 345 256 222 227 246 255 276 304 22 270 267 357 311 333 251 237 261 110 182 351 271 298 328 340 340 348 358 1
345 344 346 349 348 352 354 354 351 350 346 339 336 332 322 306 282 258 258 249 239 227 282 298 316 327 357 312 218 213 220 234 221 203 224 252 256 299 333 285 269 260 167 46 263 315 313 313 324 333 334 341 350 358
343 343 345 349 346 350 353 351 349 349 350 349 355 3 337 189 201 217 291 290 279 187 245 292 297 317 349 359 196 206 213 210 217 208 211 226 260 260 196 243 226 250 263 275 285 302 306 310 312 318 326 335 341 350
342 342 342 345 345 352 350 351 348 349 351 358 5 43 62 70 118 283 284 251 208 187 276 303 282 321 17 4 345 151 190 208 223 230 190 177 188 176 253 243 258 258 264 272 271 279 283 296 300 306 317 328 331 335
341 341 341 338 341 351 351 353 354 354 357 357 17 66 68 54 53 19 74 194 200 202 312 258 288 297 355 8 345 321 77 187 215 201 218 183 177 223 236 258 262 267 264 267 276 277 280 279 285 293 300 307 315 320
340 340 340 336 338 349 351 353 355 357 6 13 35 46 39 23 74 59 87 92 102 332 222 251 278 275 349 339 332 337 341 313 294 260 123 196 243 245 250 254 260 264 265 269 265 266 258 258 265 284 292 296 299 302
340 337 337 332 333 342 350 352 354 357 359 33 36 30 5 39 338 10 56 42 108 276 243 257 263 287 304 268 324 338 317 292 250 281 209 273 273 274 309 279 262 260 260 259 259 262 265 265 265 267 273 280 285 284
337 333 332 329 333 342 347 351 354 356 6 39 39 46 12 352 326 251 68 166 187 275 225 235 260 234 286 251 229 291 277 220 242 354 253 239 261 282 299 289 280 270 262 259 255 257 260 259 259 261 264 270 270 267
340 335 330 326 331 340 346 353 357 5 13 42 27 36 16 5 0 25 345 323 328 202 217 219 241 235 248 266 292 290 277 253 336 313 260 249 280 299 301 300 289 272 245 248 251 251 251 253 255 256 258 259 257 256
340 338 331 328 328 330 343 356 1 12 21 16 15 15 50 356 351 306 299 284 315 283 235 209 233 224 240 131 353 284 314 333 345 258 268 281 318 326 330 337 339 295 236 228 235 239 248 252 255 254 253 252 248 247
337 334 325 335 331 333 340 354 2 7 24 26 21 29 19 328 321 321 345 340 355 7 152 190 240 62 8 76 83 312 329 352 340 290 291 305 339 350 349 360 3 360 220 219 224 237 247 251 255 259 263 254 242 235
337 327 320 333 330 336 353 4 6 15 42 46 36 24 341 350 349 10 6 11 12 29 169 214 246 257 64 25 336 26 359 27 2 359 2 6 3 5 9 18 18 28 10 258 233 240 250 261 268 266 249 233 229 240
342 322 327 342 338 340 345 2 14 31 52 66 21 11 1 318 304 0 12 15 17 359 6 312 34 7 329 12 15 9 15 353 0 6 18 29 25 24 25 26 29 29 35 36 21 293 255 250 242 236 236 244 250 245
340 330 339 343 339 333 315 356 13 33 85 119 106 62 68 55 43 36 37 37 36 22 22 53 45 19 43 358 339 328 334 23 34 35 36 39 37 36 30 28 28 29 34 32 52 62 50 189 173 174 185 197 178 143
339 341 330 339 339 331 331 351 338 2 97 98 128 110 80 54 56 56 52 52 51 50 54 45 49 17 346 334 317 337 8 9 11 38 33 27 24 24 30 26 25 27 37 30 30 40 59 68 80 117 106 122 110 92
342 352 348 353 2 14 22 42 11 60 65 24 32 67 76 57 57 68 63 50 45 41 42 48 32 353 338 6 24 32 38 33 35 39 38 38 36 33 32 28 28 25 29 28 30 37 45 57 61 58 74 81 83 63
355 3 6 15 18 28 45 22 49 59 80 82 104 78 21 48 42 47 45 47 54 38 25 19 40 47 38 27 25 36 40 41 50 49 42 41 41 37 32 30 30 27 26 26 28 28 34 37 40 67 71 67 64 72
333 336 339 347 336 8 61 30 44 74 73 112 104 130 197 45 61 46 42 41 54 35 20 26 41 42 35 29 25 47 60 48 41 40 38 38 43 42 39 33 30 28 27 22 17 20 25 32 46 54 68 91 96 89
351 358 6 2 343 5 44 24 60 69 98 129 138 153 169 129 92 90 69 18 25 35 33 54 43 54 42 30 15 26 33 26 28 25 26 31 32 33 35 33 31 27 23 21 19 19 23 19 36 62 61 67 71 74
10 25 19 27 18 24 11 44 56 76 117 160 134 88 49 46 46 56 58 345 353 13 28 59 67 57 38 34 34 36 31 22 17 10 13 8 6 13 19 23 28 31 27 21 20 23 31 46 40 42 63 72 74 79
7 13 17 23 22 14 25 9 22 63 66 31 72 76 47 69 93 108 201 283 346 20 31 51 56 53 47 41 37 32 22 15 10 10 9 3 355 347 351 358 6 12 17 25 28 24 35 40 52 56 54 60 64 65
64 19 45 25 6 45 337 355 35 76 108 76 75 114 102 101 101 197 233 359 19 10 355 354 13 62 45 45 38 29 24 22 13 17 18 14 17 17 14 15 14 11 8 4 24 31 34 45 61 63 64 62 59 57
42 334 34 359 330 326 353 9 120 84 84 111 158 109 104 82 134 239 85 40 9 358 339 344 351 39 58 62 35 25 22 22 23 28 25 20 20 15 10 10 11 14 6 5 11 29 39 42 53 60 61 60 56 49
190 237 213 322 309 328 350 349 74 115 156 146 129 107 136 160 198 134 77 17 1 2 3 350 25 58 50 29 19 17 18 21 19 25 27 29 35 37 36 36 30 29 31 41 47 48 46 51 55 54 50 48 39 29
208 211 216 304 272 262 267 208 167 149 156 164 140 177 174 135 130 112 27 8 29 25 2 352 5 9 15 9 2 4 7 12 21 23 22 23 27 35 32 32 36 36 34 35 37 35 30 26 29 32 47 59 65 64
235 197 207 199 177 232 193 183 161 150 158 151 124 131 133 137 139 74 26 57 79 31 12 1 357 8 4 9 2 356 5 22 25 22 21 21 24 24 20 20 24 27 27 32 42 54 59 54 62 67 56 56 56 54
249 196 229 196 182 182 165 151 149 144 132 127 152 158 147 145 143 148 121 126 66 29 356 21 2 351 355 5 6 356 351 16 19 19 16 13 12 17 19 24 31 38 44 53 56 56 58 61 60 54 44 39 32 29
204 205 184 158 154 155 150 157 152 156 156 159 159 178 180 177 170 185 166 118 342 14 32 359 348 350 9 19 12 351 15 14 10 11 10 15 17 12 14 20 21 20 25 29 31 35 38 36 32 29 26 23 19 17
189 176 170 140 146 183 190 173 185 188 197 206 227 215 199 174 127 95 165 263 316 38 11 322 319 355 358 9 8 22 10 0 358 2 3 359 359 3 3 9 13 13 17 16 13 23 25 18 14 15 15 12 8 4